TimeCDT,TemperatureF,Dew PointF,Humidity,Sea Level PressureIn,VisibilityMPH,Wind Direction,Wind SpeedMPH,Gust SpeedMPH,PrecipitationIn,Events,Conditions,WindDirDegrees,DateUTC
5:35 AM,19.4,14.0,80,29.70,4.0,WNW,8.1,-,N/A,,Overcast,300,2013-03-12 10:35:00
5:55 AM,19.4,14.0,80,29.70,3.0,NW,9.2,-,N/A,,Overcast,310,2013-03-12 10:55:00
6:15 AM,19.4,15.8,86,29.71,4.0,WNW,8.1,-,N/A,,Overcast,300,2013-03-12 11:15:00
6:35 AM,19.4,12.2,74,29.71,3.0,WNW,6.9,-,N/A,,Overcast,290,2013-03-12 11:35:00
6:55 AM,19.4,14.0,80,29.71,3.0,WNW,5.8,-,N/A,,Overcast,290,2013-03-12 11:55:00
7:15 AM,19.4,14.0,80,29.71,4.0,WNW,4.6,-,N/A,,Overcast,290,2013-03-12 12:15:00
7:35 AM,19.4,14.0,80,29.71,4.0,West,6.9,-,N/A,,Overcast,260,2013-03-12 12:35:00
7:55 AM,19.4,14.0,80,29.71,3.0,West,8.1,-,N/A,,Overcast,280,2013-03-12 12:55:00
8:15 AM,19.4,14.0,80,29.71,3.0,West,9.2,-,N/A,,Overcast,270,2013-03-12 13:15:00
8:35 AM,19.4,15.8,86,29.71,2.5,West,8.1,-,N/A,,Overcast,270,2013-03-12 13:35:00
8:55 AM,19.4,14.0,80,29.71,3.0,West,9.2,-,N/A,,Overcast,280,2013-03-12 13:55:00
9:15 AM,19.4,15.8,86,29.71,4.0,West,8.1,-,N/A,,Overcast,280,2013-03-12 14:15:00
9:35 AM,19.4,15.8,86,29.72,2.5,WNW,9.2,-,N/A,,Overcast,290,2013-03-12 14:35:00
9:55 AM,19.4,15.8,86,29.72,2.5,WNW,10.4,-,N/A,,Overcast,290,2013-03-12 14:55:00
10:15 AM,19.4,15.8,86,29.73,2.5,NW,13.8,-,N/A,,Overcast,310,2013-03-12 15:15:00
10:35 AM,21.2,14.0,74,29.73,1.2,NW,10.4,-,N/A,,Overcast,320,2013-03-12 15:35:00
10:55 AM,19.4,15.8,86,29.74,1.8,NNW,8.1,-,N/A,,Overcast,330,2013-03-12 15:55:00
11:15 AM,21.2,15.8,80,29.75,1.8,NNW,13.8,19.6,N/A,,Overcast,330,2013-03-12 16:15:00
11:35 AM,19.4,14.0,80,29.76,1.5,NW,10.4,18.4,N/A,,Overcast,320,2013-03-12 16:35:00
11:55 AM,19.4,14.0,80,29.76,1.5,NW,15.0,18.4,N/A,,Overcast,320,2013-03-12 16:55:00
12:15 PM,19.4,12.2,74,29.77,1.5,NW,10.4,-,N/A,,Overcast,320,2013-03-12 17:15:00
12:35 PM,19.4,12.2,74,29.78,0.8,North,12.7,-,N/A,,Overcast,350,2013-03-12 17:35:00
12:55 PM,19.4,12.2,74,29.79,0.8,NNW,10.4,-,N/A,,Overcast,340,2013-03-12 17:55:00
1:15 PM,19.4,12.2,74,29.79,0.5,NNW,12.7,-,N/A,,Overcast,340,2013-03-12 18:15:00
1:35 PM,19.4,14.0,80,29.80,0.8,NNW,11.5,-,N/A,,Overcast,330,2013-03-12 18:35:00
1:55 PM,19.4,10.4,68,29.81,1.2,NNW,10.4,-,N/A,,Overcast,330,2013-03-12 18:55:00
2:15 PM,19.4,12.2,74,29.81,0.5,NNW,13.8,-,N/A,,Overcast,340,2013-03-12 19:15:00
2:35 PM,19.4,12.2,74,29.81,0.8,NNW,11.5,20.7,N/A,,Overcast,340,2013-03-12 19:35:00
2:55 PM,19.4,12.2,74,29.82,1.2,North,15.0,20.7,N/A,,Overcast,350,2013-03-12 19:55:00
3:15 PM,19.4,10.4,68,29.83,5.0,NW,15.0,18.4,N/A,,Overcast,320,2013-03-12 20:15:00
3:35 PM,17.6,12.2,79,29.84,0.8,NW,12.7,16.1,N/A,,Overcast,320,2013-03-12 20:35:00
3:55 PM,17.6,10.4,73,29.85,0.8,NNW,10.4,-,N/A,,Overcast,330,2013-03-12 20:55:00
4:15 PM,17.6,12.2,79,29.85,0.5,NNW,9.2,-,N/A,,Overcast,340,2013-03-12 21:15:00
4:35 PM,19.4,12.2,74,29.86,0.5,NW,13.8,-,N/A,,Overcast,310,2013-03-12 21:35:00
4:55 PM,19.4,14.0,80,29.86,0.5,NW,11.5,-,N/A,,Overcast,320,2013-03-12 21:55:00
5:15 PM,19.4,14.0,80,29.87,0.5,NNW,12.7,-,N/A,,Overcast,330,2013-03-12 22:15:00
5:35 PM,19.4,12.2,74,29.88,1.5,NNW,12.7,-,N/A,,Overcast,340,2013-03-12 22:35:00
5:55 PM,19.4,14.0,80,29.88,1.0,NNW,15.0,19.6,N/A,,Overcast,330,2013-03-12 22:55:00
6:15 PM,19.4,14.0,80,29.89,0.8,NNW,10.4,-,N/A,,Overcast,330,2013-03-12 23:15:00
6:35 PM,19.4,15.8,86,29.90,0.2,NNW,12.7,18.4,N/A,,Overcast,330,2013-03-12 23:35:00
6:55 PM,19.4,15.8,86,29.91,0.5,North,15.0,20.7,N/A,,Overcast,350,2013-03-12 23:55:00
7:15 PM,19.4,15.8,86,29.92,0.2,NNW,16.1,21.9,N/A,,Overcast,330,2013-03-13 00:15:00
7:35 PM,19.4,15.8,86,29.93,1.0,NNW,12.7,20.7,N/A,,Overcast,340,2013-03-13 00:35:00
7:55 PM,19.4,15.8,86,29.93,1.5,NNW,10.4,-,N/A,,Overcast,330,2013-03-13 00:55:00
8:15 PM,19.4,15.8,86,29.94,0.5,NNW,12.7,23.0,N/A,,Overcast,340,2013-03-13 01:15:00
8:35 PM,19.4,15.8,86,29.94,2.0,North,10.4,19.6,N/A,,Overcast,10,2013-03-13 01:35:00
8:55 PM,19.4,14.0,80,29.95,3.0,North,10.4,16.1,N/A,,Overcast,360,2013-03-13 01:55:00
9:15 PM,19.4,14.0,80,29.96,2.5,North,12.7,19.6,N/A,,Mostly Cloudy,360,2013-03-13 02:15:00
9:35 PM,19.4,14.0,80,29.96,1.2,North,12.7,17.3,N/A,,Overcast,360,2013-03-13 02:35:00
9:55 PM,19.4,12.2,74,29.97,3.0,North,13.8,25.3,N/A,,Overcast,350,2013-03-13 02:55:00
10:15 PM,19.4,12.2,74,29.98,3.0,North,11.5,19.6,N/A,,Overcast,360,2013-03-13 03:15:00
10:35 PM,19.4,12.2,74,29.99,5.0,North,10.4,-,N/A,,Overcast,350,2013-03-13 03:35:00
10:55 PM,19.4,10.4,68,29.99,8.0,North,9.2,18.4,N/A,,Overcast,350,2013-03-13 03:55:00
11:15 PM,19.4,10.4,68,29.99,10.0,North,8.1,-,N/A,,Overcast,350,2013-03-13 04:15:00
11:35 PM,19.4,8.6,63,29.99,10.0,North,6.9,-,N/A,,Overcast,350,2013-03-13 04:35:00
11:55 PM,19.4,6.8,58,30.00,10.0,North,8.1,16.1,N/A,,Overcast,360,2013-03-13 04:55:00